Content
SEND FEEDBACK

Daily
Averages
Monthly
Summary
United Kingdom

LONDON, ENGLAND


Home > Europe > United Kingdom > England
Elevation: 203 feet     Latitude: 51 09N     Longitude: 000 11W

WEATHER
 
SELECT A DAY
Number of Records: 299,385;   Date Range: 7/1/96 - 12/16/14
 
SHARE

PRINT THIS DATA

[ ← Previous Day ]
WEATHER ALMANAC - MAY 3, 2013
[ Next Day → ]
[ °C ]   °F
Weather ElementAverageHighLow
Temperature53.6 °F66.2 °F (2:20 pm)35.6 °F (4:50 am)
Dewpoint37.7 °F42.8 °F (5:20 pm)32 °F (4:50 am)
Humidity58.2 %87 % (3:50 am)30 % (3:20 pm)
Barometer30.10 in30.18 in (12:50 am)30.04 in (6:50 pm)
Wind Speed6.2 mph13.8 mph (6:20 pm)
Weather ElementAverage
Visibility6.2 mi
Wind DirectionS (178.3 °)

Weather ElementTotal
Precipitation---
Heating Degree Days14.1 (Base 65)
Growing Degree Days0.9 (Base 50)
Averaged from 46 records on May 3, 2013
WEATHER CONDITIONS BREAKOUT
WIND DIRECTION BREAKOUT
WEATHER BY HOUR - MAY 3, 2013
[ °C ]   °F
Local TimeTemperatureDewpointHumidityBarometerVisibilityWind DirectionWind SpeedGust SpeedPrecipitationEventsConditions
12:50 AM41.0 °F33.8 °F76 %30.18 inCalmClear
1:20 AM41.0 °F33.8 °F76 %30.18 inVariable2.3 mphClear
1:50 AM41.0 °F33.8 °F76 %30.15 inCalmClear
2:20 AM39.2 °F33.8 °F81 %30.15 inCalmClear
2:50 AM39.2 °F33.8 °F81 %30.15 inCalmClear
3:50 AM37.4 °F33.8 °F87 %30.15 inSouth (180°)2.3 mphClear
4:20 AM37.4 °F33.8 °F87 %30.15 inCalmClear
4:50 AM35.6 °F32.0 °F87 %30.12 inWest (270°)3.5 mphClear
5:20 AM35.6 °F32.0 °F87 %30.12 inCalmClear
5:50 AM37.4 °F32.0 °F81 %30.12 inCalmClear
6:20 AM37.4 °F32.0 °F81 %30.12 inCalmClear
6:50 AM39.2 °F33.8 °F81 %30.15 inVariable2.3 mphClear
7:20 AM42.8 °F35.6 °F76 %30.15 inCalmClear
7:50 AM46.4 °F35.6 °F66 %30.15 inVariable2.3 mphClear
8:20 AM50.0 °F37.4 °F62 %30.15 inVariable2.3 mphClear
8:50 AM53.6 °F37.4 °F54 %30.15 inVariable3.5 mphClear
9:20 AM55.4 °F35.6 °F47 %30.15 inWest (270°)5.8 mphClear
9:50 AM57.2 °F35.6 °F44 %30.12 inWest (280°)4.6 mphClear
10:20 AM59.0 °F39.2 °F48 %30.12 inWNW (290°)5.8 mphClear
10:50 AM60.8 °F39.2 °F45 %30.12 inWNW (300°)5.8 mphClear
11:20 AM60.8 °F39.2 °F45 %30.12 inVariable3.5 mphClear
11:50 AM62.6 °F37.4 °F39 %30.12 inWest (270°)6.9 mphClear
12:20 PM62.6 °F37.4 °F39 %30.12 inWSW (250°)8.1 mphClear
12:50 PM64.4 °F37.4 °F37 %30.12 inSW (230°)8.1 mphClear
1:20 PM64.4 °F37.4 °F37 %30.09 inWest (260°)5.8 mphClear
1:50 PM64.4 °F39.2 °F40 %30.09 inWNW (290°)8.1 mphClear
2:20 PM66.2 °F39.2 °F37 %30.09 inSW (230°)8.1 mphClear
2:50 PM66.2 °F35.6 °F32 %30.09 inSW (230°)9.2 mphClear
3:20 PM66.2 °F33.8 °F30 %30.06 inWest (260°)8.1 mphClear
3:50 PM66.2 °F33.8 °F30 %30.06 inWSW (250°)10.4 mphClear
4:20 PM66.2 °F39.2 °F37 %30.06 inWest (260°)9.2 mphClear
4:50 PM66.2 °F39.2 °F37 %30.06 inWSW (250°)10.4 mphClear
5:20 PM66.2 °F42.8 °F43 %30.06 inWNW (290°)11.5 mphClear
5:50 PM64.4 °F42.8 °F45 %30.06 inWNW (290°)11.5 mphClear
6:20 PM62.6 °F42.8 °F48 %30.06 in6.2 miWest (270°)13.8 mphPartly Cloudy
6:50 PM62.6 °F42.8 °F48 %30.04 inWest (280°)12.7 mphClear
7:20 PM60.8 °F42.8 °F52 %30.04 inWest (280°)11.5 mphClear
7:50 PM59.0 °F42.8 °F55 %30.06 inWest (270°)12.7 mphClear
8:20 PM57.2 °F42.8 °F59 %30.06 inWest (270°)10.4 mphClear
8:50 PM55.4 °F42.8 °F63 %30.06 inWest (270°)10.4 mphClear
9:20 PM51.8 °F41.0 °F67 %30.06 inWest (270°)8.1 mphClear
9:50 PM53.6 °F41.0 °F62 %30.09 in6.2 miWSW (240°)6.9 mphPartly Cloudy
10:20 PM53.6 °F42.8 °F67 %30.09 in6.2 miWest (270°)10.4 mphMostly Cloudy
10:50 PM51.8 °F41.0 °F67 %30.09 in6.2 miWest (280°)10.4 mphScattered Clouds
11:20 PM51.8 °F41.0 °F67 %30.06 inWest (280°)8.1 mphClear
11:50 PM50.0 °F41.0 °F71 %30.06 inWest (270°)8.1 mphClear
Hourly data recorded from EGKK, located miles away from London, England







STORIES FROM OUR PARTNERS